Location: Étouvelles
(49.5207°N, 3.5808°E)
Time: 23:32:55
(UTC+00:00)

Cosmos 540 Rocket - Pass Details

Date: 28 September 2023
Orbit: 737 x 752 km, 74.1° (Epoch: 03 December)

Event Time Altitude Azimuth Distance (km) Brightness Sun altitude
Rises 20:38:15 0° 340° (NNW) 3,184 7.5 -29.4°
Reaches altitude 10° 20:40:43 10° 347° (NNW) 2,258 6.5 -29.8°
Enters shadow 20:43:49 32° 12° (NNE) 1,263 4.7 -30.2°
